sat.trackr.live / text

‹ back to catalog

STARLINK-32310

NORAD 61662 · 2024-193B

PAYLOAD ACTIVE UNKNOWN

§ Identity

Operator
Country
US
Launch date
2024-10-26
Launch site
AFETR
Launch vehicle
Mass (kg)
RCS (m²)

Purposes: comms

External: N2YO · Heavens-Above · Gunter

§ Orbital elements

Epoch: 2026-09-21T06:50:32.324640Z

Period
94.01 min
Inclination
53.1596°
Eccentricity
0.0001180
Mean motion
15.31704352 rev/d
Perigee alt
469.9 km
Apogee alt
471.5 km
Semi-major
6,848.9 km
B*
-1.7760e-5
RAAN
261.0365°
Arg perigee
96.6830°
Mean anomaly
263.4306°
Rev number
10,649

§ Raw data

STARLINK-323101 61662U 24193B   26264.28509635 -.00000916  00000+0 -17760-4 0  99902 61662  53.1596 261.0365 0001180  96.6830 263.4306 15.31704352106492

JSON: /api/v1/satellites/61662 · /tle

For live sub-satellite position, see the globe view (requires WebGL).

§ Visibility from observer

Set your observer location to see the next 7 days of passes ≥ 10°. The values pass through the URL so the page stays shareable.

No JS? Fill the form by hand. The geolocation button needs JavaScript.